Location: Gro� Glienicke
(52.4675°N, 13.1079°E)
Time: 08:32:30
(UTC+00:00)

Resurs 01 Rocket - Pass Details

Date: 06 July 2020
Orbit: 634 x 644 km, 98.0° (Epoch: 05 August)

Event Time Altitude Azimuth Distance (km) Brightness Sun altitude
Rises 21:11:40 0° 223° (SW) 2,932 4.8 -10.5°
Reaches altitude 10° 21:15:43 10° 260° (W) 2,029 4.4 -10.8°
Maximum altitude 21:16:51 11° 275° (W) 1,973 4.6 -10.8°
Drops below altitude 10° 21:18:00 10° 291° (WNW) 2,032 4.9 -10.9°
Sets 21:22:05 0° 328° (NNW) 2,947 7.2 -11.2°
